422  
ASUS44 KBMX 161610  
RWRAL  
 
ALABAMA REGIONAL WEATHER ROUNDUP  
NATIONAL WEATHER SERVICE BIRMINGHAM AL  
1100 AM CDT TUE OCT 16 2018  
 
NOTE: "FAIR" INDICATES FEW OR NO CLOUDS BELOW 12,000 FEET  
WITH NO SIGNIFICANT WEATHER AND/OR S TO VISIBILITY
.  
 
THE REMARK "TC" DENOTES TEMPERATURE IN DEGREES CELSIUS.  
 
ALZ001>011-014-016>018-020-161700-  
NORTH ALABAMA  
 
CITY SKY/WX TMP DP RH WIND PRES REMARKS
 
MUSCLE SHOALS CLOUDY 57 50 77 N5 30.25S  
HUNTSVILLE CLOUDY 59 54 83 N5 30.21F  
DECATUR LGT RAIN 57 52 83 N7 30.22F  
HALEYVILLE LGT RAIN 55 53 93 MISG 30.27R  
GADSDEN CLOUDY 65 65 100 E9 30.19F  

 
 
ALZ012-013-022-023-030>036-040>044-161700-  
WEST CENTRAL ALABAMA  
 
CITY SKY/WX TMP DP RH WIND PRES REMARKS
 
TUSCALOOSA CLOUDY 65 59 81 N8 30.17F  
DEMOPOLIS NOT AVBL  

 
 
ALZ015-024>026-033>036-041>044-161700-  
CENTRAL ALABAMA  
 
CITY SKY/WX TMP DP RH WIND PRES REMARKS
 
BIRMINGHAM CLOUDY 64 61 90 N6 30.21F  
MONTGOMERY CLOUDY 81 73 76 CALM 30.14S  
SHELBY CO ARPT CLOUDY 69 63 81 N5 30.17F  
MAXWELL AFB PTSUNNY 80 72 77 CALM 30.13S  
GREENVILLE CLOUDY 76 71 85 CALM 30.13F  
SELMA N/A 75 70 83 NW5 30.13  
PRATTVILLE PTSUNNY 79 73 80 CALM 30.13S  
BESSEMER CLOUDY 67 63 87 N6 30.19S  
TALLADEGA CLOUDY 69 64 86 CALM 30.19S  
PELL CITY CLOUDY 68 66 94 N6 30.19  
MARION CLOUDY 71 65 81 N3 30.14F  
SYLACAUGA CLOUDY 70 68 94 NE5 30.18F  

 
 
ALZ019-021-028-029-037-038-045>048-161700-  
EAST CENTRAL ALABAMA  
 
CITY SKY/WX TMP DP RH WIND PRES REMARKS
 
ANNISTON CLOUDY 68 64 87 NE7 30.18S  
ALEXANDER CITY PTSUNNY 78 74 87 CALM 30.16F  
AUBURN FAIR 81 73 76 CALM 30.16F  

 
 
ALZ051>064-161700-  
SOUTHWEST ALABAMA  
 
CITY SKY/WX TMP DP RH WIND PRES REMARKS
 
MOBILE FAIR 83 74 74 S7 30.11F  
BROOKLEY FIELD PTSUNNY 82 78 88 SE6 30.12S HX 91  
EVERGREEN PTSUNNY 83 72 69 SW5 30.13S  

 
 
ALZ049-050-065>069-161700-  
SOUTHEAST ALABAMA  
 
CITY SKY/WX TMP DP RH WIND PRES REMARKS
 
DOTHAN FAIR 84 71 65 VRB6 30.16F  
OZARK PTSUNNY 78 78 100 CALM 30.14R  
TROY PTSUNNY 82 73 74 CALM 30.14F  
EUFAULA FAIR 88 73 61 S5 30.12F HX 95  

 
 
 
CLICK HERE TO GO TO PREVIOUS BULLETINS.

The Nexlab AL Page Main Text Page